Meteo pe oră la Dziennice

Astăzi, 26 Februarie, Vineri

Timp Temperatura Precipitaţii Vânt Presiune Umiditate
00:00 +8°C° 0 mm 3 m/s 761 mmHg 90%
01:00 +8°C° 0 mm 3 m/s 761 mmHg 92%
02:00 +8°C° 0 mm 3 m/s 761 mmHg 93%
03:00 +7°C° 0 mm 3 m/s 761 mmHg 93%
04:00 +7°C° 0 mm 2 m/s 761 mmHg 94%
05:00 +6°C° 0 mm 2 m/s 761 mmHg 94%
06:00 +6°C° 0 mm 2 m/s 761 mmHg 94%
07:00 +5°C° 0 mm 2 m/s 760 mmHg 95%
08:00 +6°C° 0.6 mm 2 m/s 760 mmHg 92%
09:00 +5°C° 0.6 mm 3 m/s 761 mmHg 89%
10:00 +5°C° 0.6 mm 3 m/s 761 mmHg 87%
11:00 +6°C° 0.4 mm 4 m/s 761 mmHg 82%
12:00 +6°C° 0.4 mm 4 m/s 761 mmHg 77%
13:00 +7°C° 0.4 mm 5 m/s 761 mmHg 72%
14:00 +7°C° 0 mm 4 m/s 761 mmHg 71%
15:00 +7°C° 0 mm 4 m/s 760 mmHg 70%
16:00 +7°C° 0 mm 4 m/s 760 mmHg 69%
17:00 +6°C° 0 mm 4 m/s 760 mmHg 72%
18:00 +5°C° 0 mm 5 m/s 761 mmHg 75%
19:00 +5°C° 0 mm 5 m/s 761 mmHg 79%
20:00 +3°C° 0 mm 5 m/s 761 mmHg 79%
21:00 +3°C° 0 mm 5 m/s 761 mmHg 80%
22:00 +3°C° 0 mm 5 m/s 760 mmHg 81%
23:00 +3°C° 0 mm 5 m/s 761 mmHg 82%

Mâine, 27 Februarie, Sâmbătă

Timp Temperatura Precipitaţii Vânt Presiune Umiditate
00:00 +3°C° 0 mm 6 m/s 761 mmHg 82%
01:00 +2°C° 0 mm 6 m/s 761 mmHg 83%
02:00 +2°C° 0 mm 6 m/s 761 mmHg 84%
03:00 +2°C° 0 mm 6 m/s 761 mmHg 85%
04:00 +2°C° 0 mm 6 m/s 761 mmHg 86%
05:00 +2°C° 0 mm 6 m/s 761 mmHg 87%
06:00 +2°C° 0 mm 5 m/s 762 mmHg 88%
07:00 +1°C° 0 mm 5 m/s 763 mmHg 89%
08:00 +2°C° 0 mm 5 m/s 763 mmHg 85%
09:00 +3°C° 0 mm 5 m/s 763 mmHg 82%
10:00 +3°C° 0 mm 5 m/s 764 mmHg 78%
11:00 +5°C° 0 mm 5 m/s 764 mmHg 73%
12:00 +5°C° 0 mm 6 m/s 764 mmHg 68%
13:00 +7°C° 0 mm 6 m/s 764 mmHg 63%
14:00 +6°C° 0 mm 5 m/s 764 mmHg 63%
15:00 +6°C° 0 mm 5 m/s 765 mmHg 64%
16:00 +6°C° 0 mm 4 m/s 765 mmHg 64%
17:00 +5°C° 0 mm 4 m/s 765 mmHg 69%
18:00 +4°C° 0 mm 4 m/s 765 mmHg 74%
19:00 +2°C° 0 mm 3 m/s 766 mmHg 79%
20:00 +2°C° 0 mm 3 m/s 766 mmHg 82%
21:00 +1°C° 0 mm 3 m/s 766 mmHg 85%
22:00 0°C° 0 mm 3 m/s 766 mmHg 88%
23:00 0°C° 0 mm 3 m/s 767 mmHg 88%

Poimâine, 28 Februarie, Duminică

Timp Temperatura Precipitaţii Vânt Presiune Umiditate
00:00 -1°C° 0 mm 3 m/s 767 mmHg 89%
01:00 -1°C° 0 mm 2 m/s 767 mmHg 89%
02:00 -1°C° 0 mm 2 m/s 767 mmHg 88%
03:00 -1°C° 0 mm 2 m/s 767 mmHg 88%
04:00 -1°C° 0 mm 2 m/s 767 mmHg 87%
05:00 -1°C° 0 mm 2 m/s 767 mmHg 87%
06:00 -1°C° 0 mm 2 m/s 767 mmHg 87%
07:00 -1°C° 0 mm 2 m/s 767 mmHg 87%
08:00 +2°C° 0 mm 2 m/s 767 mmHg 81%
09:00 +2°C° 0 mm 3 m/s 767 mmHg 75%
10:00 +4°C° 0 mm 3 m/s 767 mmHg 69%
11:00 +5°C° 0 mm 3 m/s 768 mmHg 66%
12:00 +7°C° 0 mm 3 m/s 768 mmHg 62%
13:00 +8°C° 0 mm 3 m/s 768 mmHg 59%
14:00 +7°C° 0 mm 3 m/s 767 mmHg 62%
15:00 +7°C° 0 mm 2 m/s 767 mmHg 65%
16:00 +7°C° 0 mm 2 m/s 767 mmHg 67%
17:00 +6°C° 0 mm 2 m/s 767 mmHg 73%
18:00 +5°C° 0 mm 2 m/s 767 mmHg 79%
19:00 +2°C° 0 mm 3 m/s 767 mmHg 85%
20:00 +3°C° 0 mm 2 m/s 767 mmHg 87%
21:00 +2°C° 0 mm 2 m/s 768 mmHg 90%
22:00 +2°C° 0 mm 2 m/s 768 mmHg 93%
23:00 +2°C° 0 mm 2 m/s 768 mmHg 93%

1 Martie, Luni

Timp Temperatura Precipitaţii Vânt Presiune Umiditate
00:00 +2°C° 0 mm 2 m/s 768 mmHg 93%
01:00 +1°C° 0 mm 2 m/s 768 mmHg 93%
02:00 +1°C° 0 mm 2 m/s 768 mmHg 93%
03:00 +1°C° 0 mm 2 m/s 768 mmHg 94%
04:00 +1°C° 0 mm 2 m/s 768 mmHg 94%
05:00 +2°C° 0 mm 1 m/s 768 mmHg 95%
06:00 +2°C° 0 mm 1 m/s 768 mmHg 95%
07:00 +2°C° 0 mm 1 m/s 769 mmHg 96%
08:00 +3°C° 0 mm 1 m/s 769 mmHg 93%
09:00 +4°C° 0 mm 1 m/s 769 mmHg 90%
10:00 +5°C° 0 mm 1 m/s 769 mmHg 87%
11:00 +5°C° 0 mm 1 m/s 769 mmHg 84%
12:00 +6°C° 0 mm 1 m/s 769 mmHg 81%
13:00 +7°C° 0 mm 1 m/s 770 mmHg 78%
14:00 +7°C° 0 mm 1 m/s 769 mmHg 78%
15:00 +8°C° 0 mm 1 m/s 769 mmHg 78%
16:00 +8°C° 0 mm 1 m/s 769 mmHg 77%
17:00 +7°C° 0 mm 1 m/s 769 mmHg 81%
18:00 +6°C° 0 mm 1 m/s 769 mmHg 84%
19:00 +5°C° 0 mm 1 m/s 769 mmHg 87%
20:00 +5°C° 0 mm 1 m/s 769 mmHg 87%
21:00 +4°C° 0 mm 1 m/s 769 mmHg 87%
22:00 +3°C° 0 mm 2 m/s 769 mmHg 87%
23:00 +3°C° 0 mm 2 m/s 769 mmHg 88%

2 Martie, Marţi

Timp Temperatura Precipitaţii Vânt Presiune Umiditate
00:00 +3°C° 0 mm 2 m/s 769 mmHg 88%
01:00 +2°C° 0 mm 2 m/s 769 mmHg 89%
02:00 +2°C° 0 mm 2 m/s 769 mmHg 89%
03:00 +2°C° 0 mm 2 m/s 769 mmHg 89%
04:00 +2°C° 0 mm 2 m/s 769 mmHg 90%
05:00 +2°C° 0 mm 2 m/s 769 mmHg 90%
06:00 +1°C° 0 mm 2 m/s 769 mmHg 90%
07:00 +1°C° 0 mm 2 m/s 769 mmHg 90%
08:00 +3°C° 0 mm 2 m/s 769 mmHg 84%
09:00 +5°C° 0 mm 2 m/s 769 mmHg 79%
10:00 +6°C° 0 mm 2 m/s 769 mmHg 73%
11:00 +8°C° 0 mm 2 m/s 768 mmHg 68%
12:00 +9°C° 0 mm 2 m/s 768 mmHg 63%
13:00 +10°C° 0 mm 2 m/s 768 mmHg 58%
14:00 +10°C° 0 mm 2 m/s 768 mmHg 60%
15:00 +10°C° 0 mm 2 m/s 767 mmHg 61%
16:00 +10°C° 0 mm 2 m/s 767 mmHg 63%
17:00 +9°C° 0 mm 2 m/s 767 mmHg 66%
18:00 +7°C° 0 mm 2 m/s 767 mmHg 70%
19:00 +6°C° 0 mm 2 m/s 766 mmHg 73%
20:00 +5°C° 0 mm 2 m/s 766 mmHg 75%
21:00 +5°C° 0 mm 2 m/s 766 mmHg 77%
22:00 +5°C° 0 mm 2 m/s 766 mmHg 78%
23:00 +4°C° 0 mm 2 m/s 766 mmHg 80%

3 Martie, Miercuri

Timp Temperatura Precipitaţii Vânt Presiune Umiditate
00:00 +4°C° 0 mm 2 m/s 766 mmHg 81%
01:00 +3°C° 0 mm 2 m/s 765 mmHg 83%
02:00 +3°C° 0 mm 2 m/s 765 mmHg 83%
03:00 +3°C° 0 mm 2 m/s 765 mmHg 83%
04:00 +3°C° 0 mm 2 m/s 765 mmHg 83%
05:00 +2°C° 0 mm 2 m/s 765 mmHg 84%
06:00 +2°C° 0 mm 2 m/s 764 mmHg 85%
07:00 +1°C° 0 mm 3 m/s 764 mmHg 86%
08:00 +2°C° 0 mm 3 m/s 764 mmHg 82%
09:00 +4°C° 0 mm 3 m/s 764 mmHg 78%
10:00 +5°C° 0 mm 3 m/s 764 mmHg 74%
11:00 +7°C° 0 mm 3 m/s 764 mmHg 70%
12:00 +9°C° 0 mm 3 m/s 764 mmHg 67%
13:00 +10°C° 0 mm 4 m/s 763 mmHg 63%
14:00 +10°C° 0 mm 3 m/s 763 mmHg 65%
15:00 +10°C° 0 mm 3 m/s 763 mmHg 66%
16:00 +10°C° 0 mm 3 m/s 762 mmHg 67%
17:00 +8°C° 0 mm 3 m/s 762 mmHg 72%
18:00 +7°C° 0 mm 3 m/s 762 mmHg 77%
19:00 +5°C° 0 mm 3 m/s 762 mmHg 82%
20:00 +5°C° 0 mm 3 m/s 762 mmHg 84%
21:00 +4°C° 0 mm 3 m/s 762 mmHg 85%
22:00 +4°C° 0 mm 3 m/s 761 mmHg 87%
23:00 +4°C° 0 mm 3 m/s 761 mmHg 88%
Arată mai mult

Formular de consimțământ

Meteoprog și furnizorii noștri de servicii pot stoca și accesa date personale, precum cookies, identificatori de dispozitiv sau alte tehnologii similare pe dispozitivul dumneavoastră și procesa astfel de date pentru a personaliza conținutul și reclamele, dar și pentru a oferi caracteristici de social media și pentru a analiza traficul.

  • Stocarea și/sau accesarea informațiilor pe dispozitivul dumneavoastră

    Cookies, identificatori de dispozitiv sau alte informații pot fi stocate sau accesate pe dispozitiv în scopurile indicate mai sus.

  • Reclame și conținut personalizat, evaluarea reclamelor și a conținutului, informații despre audiențe și dezvoltarea produselor

    Reclamele și conținutul pot fi personalizate pe baza unui profil. Pot fi adăugate date suplimentare pentru a personaliza mai bine reclamele și conținutul. Performanța reclamelor și conținutului poate fi măsurată. Pot fi obținute informații despre utilizatorii care au văzut reclamele și conținutul. Aceste date pot fi utilizate pentru a dezvolta sau îmbunătăți experiența utilizatorilor, sistemele și software-ul.

Dând clic pe ‘Sunt de acord’, permiteți utilizarea cookie-urilor menționate, a identificatorilor de dispozitiv, balizelor web sau altor tehnologii similare. Setările pot fi modificate din browser-ul dispozitivului dumneavoastră.

În anumite scopuri, interesele legitime pot prima asupra consimțământului. Puteți citi mai multe informații în acest sens în Politica privind Confidențialitatea Datelor și Cookie.